,,Stat1,,Stat2,,Stat3,,Stat4,,Wind1,,Wind1,
time,status,PR1M_SUM,status,RH1M_AVG,status,SR1M_AVG,status,TA1M_AVG,status,W1dAve1m,status,W1sAve1m,
2000-01-31, 00:00:00,VALID,0,VALID,87.3821,VALID,-0.0509425,VALID,20.8558,VALID,212,VALID,1.12539,
2000-01-31, 00:01:00,VALID,0,VALID,87.4368,VALID,-0.0509425,VALID,20.8558,VALID,217,VALID,1.21382,
2000-01-31, 00:02:00,VALID,0,VALID,87.742,VALID,-0.0509425,VALID,20.8493,VALID,207,VALID,1.17002,
2000-01-31, 00:03:00,VALID,0,VALID,87.9734,VALID,-0.0339617,VALID,20.8399,VALID,222,VALID,1.20373,
2000-01-31, 00:04:00,VALID,0,VALID,88.2824,VALID,0,VALID,20.8135,VALID,227,VALID,1.09004,
2000-01-31, 00:05:00,VALID,0,VALID,88.5571,VALID,-0.0509425,VALID,20.7842,VALID,220,VALID,0.762109,
2000-01-31, 00:06:00,VALID,0,VALID,88.5138,VALID,-0.0169808,VALID,20.7685,VALID,229,VALID,1.35391,
2000-01-31, 00:07:00,VALID,0,VALID,88.6054,VALID,-0.0169808,VALID,20.7526,VALID,238,VALID,1.08113,
2000-01-31, 00:08:00,VALID,0,VALID,88.9258,VALID,0,VALID,20.73,VALID,230,VALID,1.269,
2000-01-31, 00:09:00,VALID,0,VALID,89.1598,VALID,-0.0339617,VALID,20.7036,VALID,224,VALID,1.49434,
2000-01-31, 00:10:00,VALID,0,VALID,89.3595,VALID,-0.0509425,VALID,20.6584,VALID,219,VALID,1.62901,
2000-01-31, 00:11:00,VALID,0,VALID,89.2247,VALID,-0.0509425,VALID,20.6231,VALID,224,VALID,2.13323,
2000-01-31, 00:12:00,VALID,0,VALID,89.0034,VALID,-0.0339617,VALID,20.6069,VALID,220,VALID,1.40304,
2000-01-31, 00:13:00,VALID,0,VALID,89.0632,VALID,-0.0509425,VALID,20.6298,VALID,218,VALID,1.37479,
2000-01-31, 00:14:00,VALID,0,VALID,89.2094,VALID,-0.0679233,VALID,20.6298,VALID,221,VALID,1.28163,
2000-01-31, 00:15:00,VALID,0,VALID,89.3277,VALID,-0.0169808,VALID,20.6169,VALID,233,VALID,1.08634,
2000-01-31, 00:16:00,VALID,0,VALID,89.4498,VALID,-0.0679233,VALID,20.6171,VALID,221,VALID,1.37277,
2000-01-31, 00:17:00,VALID,0,VALID,89.6151,VALID,-0.0509425,VALID,20.5918,VALID,212,VALID,1.1141,
2000-01-31, 00:18:00,VALID,0,VALID,89.7155,VALID,-0.0509425,VALID,20.5714,VALID,231,VALID,1.09079,
2000-01-31, 00:19:00,VALID,0,VALID,89.746,VALID,-0.0509425,VALID,20.5585,VALID,236,VALID,1.60114,
2000-01-31, 00:20:00,VALID,0,VALID,89.863,VALID,-0.0169808,VALID,20.5391,VALID,247,VALID,1.01895,
2000-01-31, 00:21:00,VALID,0,VALID,89.8529,VALID,-0.0679233,VALID,20.5391,VALID,217,VALID,1.373,
2000-01-31, 00:22:00,VALID,0,VALID,89.671,VALID,-0.0849042,VALID,20.5393,VALID,205,VALID,1.54975,
2000-01-31, 00:23:00,VALID,0,VALID,89.6914,VALID,-0.0679233,VALID,20.5428,VALID,220,VALID,1.2241,
2000-01-31, 00:24:00,VALID,0,VALID,89.6659,VALID,-0.0339617,VALID,20.5657,VALID,226,VALID,0.721955,
2000-01-31, 00:25:01,VALID,0,VALID,89.7473,VALID,-0.0509425,VALID,20.5757,VALID,237,VALID,0.747796,
2000-01-31, 00:26:00,VALID,0,VALID,89.6265,VALID,-0.0679233,VALID,20.5821,VALID,224,VALID,0.711338,
2000-01-31, 00:27:00,VALID,0,VALID,89.5375,VALID,-0.0339617,VALID,20.5883,VALID,229,VALID,1.23137,
2000-01-31, 00:28:00,VALID,0,VALID,89.5184,VALID,-0.0169808,VALID,20.5978,VALID,233,VALID,0.978413,
2000-01-31, 00:29:00,VALID,0,VALID,89.6532,VALID,-0.0169808,VALID,20.591,VALID,233,VALID,1.08233,
2000-01-31, 00:30:00,VALID,0,VALID,89.863,VALID,-0.0169808,VALID,20.5881,VALID,224,VALID,1.2352,
2000-01-31, 00:31:00,VALID,0,VALID,90.069,VALID,0,VALID,20.5784,VALID,221,VALID,1.07175,
2000-01-31, 00:32:00,VALID,0,VALID,90.2763,VALID,0,VALID,20.5517,VALID,238,VALID,1.2482,
2000-01-31, 00:33:00,VALID,0,VALID,90.3844,VALID,0.0169808,VALID,20.5393,VALID,240,VALID,1.41864,
2000-01-31, 00:34:00,VALID,0,VALID,90.4925,VALID,-0.0169808,VALID,20.5167,VALID,227,VALID,1.30078,
2000-01-31, 00:35:00,VALID,0,VALID,90.4734,VALID,0,VALID,20.4971,VALID,236,VALID,1.58676,
2000-01-31, 00:36:00,VALID,0,VALID,90.6311,VALID,0,VALID,20.4936,VALID,222,VALID,0.958676,
2000-01-31, 00:37:00,VALID,0,VALID,90.7392,VALID,0,VALID,20.4806,VALID,220,VALID,1.0014,
2000-01-31, 00:38:00,VALID,0,VALID,90.8256,VALID,-0.0169808,VALID,20.475,VALID,233,VALID,1.38877,
2000-01-31, 00:39:00,VALID,0,VALID,90.757,VALID,-0.0169808,VALID,20.4623,VALID,238,VALID,1.62007,
2000-01-31, 00:40:00,VALID,0,VALID,90.8701,VALID,0,VALID,20.462,VALID,236,VALID,1.37965,
2000-01-31, 00:41:00,VALID,0,VALID,90.968,VALID,0,VALID,20.4647,VALID,231,VALID,1.04447,
2000-01-31, 00:42:00,VALID,0,VALID,90.9159,VALID,0,VALID,20.462,VALID,212,VALID,1.10527,
2000-01-31, 00:43:00,VALID,0,VALID,91.0062,VALID,-0.0849042,VALID,20.4566,VALID,220,VALID,0.466283,
2000-01-31, 00:44:00,VALID,0,VALID,91.0151,VALID,-0.101885,VALID,20.4603,VALID,205,VALID,0.939103,
2000-01-31, 00:45:00,VALID,0,VALID,90.9388,VALID,-0.118866,VALID,20.4501,VALID,208,VALID,1.01563,
2000-01-31, 00:46:00,VALID,0,VALID,90.9693,VALID,-0.101885,VALID,20.4439,VALID,204,VALID,0.651486,
2000-01-31, 00:47:00,VALID,0,VALID,90.9045,VALID,-0.118866,VALID,20.4375,VALID,216,VALID,1.25021,
2000-01-31, 00:48:00,VALID,0,VALID,90.8002,VALID,-0.118866,VALID,20.4506,VALID,197,VALID,1.10633,
2000-01-31, 00:49:00,VALID,0,VALID,90.8765,VALID,-0.101885,VALID,20.4404,VALID,175,VALID,1.08213,
2000-01-31, 00:50:00,VALID,0,VALID,90.5891,VALID,-0.118866,VALID,20.438,VALID,185,VALID,1.78776,
2000-01-31, 00:51:00,VALID,0,VALID,90.4429,VALID,-0.101885,VALID,20.4501,VALID,181,VALID,1.54046,
2000-01-31, 00:52:00,VALID,0,VALID,89.2348,VALID,-0.101885,VALID,20.4857,VALID,181,VALID,1.84922,
2000-01-31, 00:53:00,VALID,0,VALID,89.1738,VALID,-0.101885,VALID,20.57,VALID,182,VALID,1.53666,
2000-01-31, 00:54:00,VALID,0,VALID,89.4332,VALID,-0.101885,VALID,20.6155,VALID,223,VALID,1.17866,
2000-01-31, 00:55:00,VALID,0,VALID,89.849,VALID,-0.118866,VALID,20.6222,VALID,215,VALID,0.696135,
2000-01-31, 00:56:00,VALID,0,VALID,90.0779,VALID,-0.101885,VALID,20.5826,VALID,190,VALID,0.846917,
2000-01-31, 00:57:00,VALID,0,VALID,90.3017,VALID,-0.101885,VALID,20.5541,VALID,200,VALID,1.16616,
2000-01-31, 00:58:00,VALID,0,VALID,90.6171,VALID,-0.0169808,VALID,20.5003,VALID,195,VALID,1.39186,
2000-01-31, 00:59:00,VALID,0,VALID,90.9591,VALID,0,VALID,20.4585,VALID,218,VALID,1.3095,
2000-01-31, 01:00:00,VALID,0,VALID,91.1804,VALID,0,VALID,20.4096,VALID,221,VALID,1.728,
2000-01-31, 01:01:00,VALID,0,VALID,91.3406,VALID,0,VALID,20.371,VALID,201,VALID,1.77076,
2000-01-31, 01:02:00,VALID,0,VALID,91.5492,VALID,0,VALID,20.3586,VALID,216,VALID,1.42228,
2000-01-31, 01:03:00,VALID,0,VALID,91.6407,VALID,0,VALID,20.3492,VALID,211,VALID,1.79607,
2000-01-31, 01:04:00,VALID,0,VALID,91.731,VALID,0,VALID,20.3325,VALID,228,VALID,1.17743,
2000-01-31, 01:05:00,VALID,0,VALID,91.7679,VALID,0,VALID,20.3395,VALID,204,VALID,1.41836,
2000-01-31, 01:06:00,VALID,0,VALID,91.6547,VALID,0.0169808,VALID,20.3266,VALID,221,VALID,1.34354,
2000-01-31, 01:07:00,VALID,0,VALID,91.5466,VALID,-0.0169808,VALID,20.3529,VALID,212,VALID,1.35276,
2000-01-31, 01:08:00,VALID,0,VALID,91.5072,VALID,-0.0339617,VALID,20.3621,VALID,211,VALID,1.01445,
2000-01-31, 01:09:01,VALID,0,VALID,91.2211,VALID,0,VALID,20.3713,VALID,204,VALID,1.45156,
2000-01-31, 01:10:00,VALID,0,VALID,91.258,VALID,0,VALID,20.3912,VALID,211,VALID,1.37383,
2000-01-31, 01:11:00,VALID,0,VALID,91.169,VALID,0.0169808,VALID,20.3904,VALID,190,VALID,1.4365,
2000-01-31, 01:12:00,VALID,0,VALID,91.2949,VALID,0,VALID,20.4073,VALID,213,VALID,1.1269,
2000-01-31, 01:13:00,VALID,0,VALID,91.3419,VALID,0,VALID,20.4041,VALID,217,VALID,1.14844,
2000-01-31, 01:14:00,VALID,0,VALID,91.2313,VALID,0,VALID,20.4006,VALID,224,VALID,1.57732,
2000-01-31, 01:15:00,VALID,0,VALID,91.1092,VALID,-0.0169808,VALID,20.4138,VALID,212,VALID,1.13661,
2000-01-31, 01:16:00,VALID,0,VALID,91.1359,VALID,-0.0169808,VALID,20.4165,VALID,208,VALID,1.63862,
2000-01-31, 01:17:00,VALID,0,VALID,91.0774,VALID,0.0169808,VALID,20.4367,VALID,170,VALID,1.65769,
2000-01-31, 01:18:00,VALID,0,VALID,91.2262,VALID,0.0169808,VALID,20.4432,VALID,175,VALID,1.31841,
2000-01-31, 01:19:00,VALID,0,VALID,91.2592,VALID,0.0169808,VALID,20.4267,VALID,187,VALID,1.61438,
2000-01-31, 01:20:01,VALID,0,VALID,91.6115,VALID,0,VALID,20.3971,VALID,186,VALID,1.53757,
2000-01-31, 01:21:00,VALID,0,VALID,91.553,VALID,0,VALID,20.381,VALID,201,VALID,1.52097,
2000-01-31, 01:22:00,VALID,0,VALID,91.6827,VALID,0.0169808,VALID,20.3721,VALID,179,VALID,1.19257,
2000-01-31, 01:23:00,VALID,0,VALID,92.0871,VALID,0.0169808,VALID,20.3653,VALID,180,VALID,1.38746,
2000-01-31, 01:24:00,VALID,0,VALID,92.3961,VALID,0,VALID,20.3263,VALID,198,VALID,1.29102,
2000-01-31, 01:25:00,VALID,0,VALID,92.6784,VALID,0,VALID,20.2846,VALID,195,VALID,1.33033,
2000-01-31, 01:26:00,VALID,0,VALID,92.8818,VALID,-0.0169808,VALID,20.2453,VALID,190,VALID,1.55942,
2000-01-31, 01:27:00,VALID,0,VALID,93.2086,VALID,0,VALID,20.2135,VALID,208,VALID,1.55757,
2000-01-31, 01:28:00,VALID,0,VALID,93.304,VALID,-0.0849042,VALID,20.1879,VALID,213,VALID,1.60016,
2000-01-31, 01:29:00,VALID,0,VALID,93.5774,VALID,-0.0169808,VALID,20.1652,VALID,205,VALID,1.40825,
2000-01-31, 01:30:00,VALID,0,VALID,93.6626,VALID,-0.0169808,VALID,20.1396,VALID,195,VALID,1.61999,
2000-01-31, 01:31:00,VALID,0,VALID,93.7847,VALID,-0.0509425,VALID,20.117,VALID,194,VALID,1.67428,
2000-01-31, 01:32:00,VALID,0,VALID,94.0046,VALID,0,VALID,20.1004,VALID,185,VALID,1.23006,
2000-01-31, 01:33:00,VALID,0,VALID,94.189,VALID,-0.0849042,VALID,20.0745,VALID,215,VALID,1.23978,
2000-01-31, 01:34:00,VALID,0,VALID,94.1064,VALID,-0.0509425,VALID,20.0755,VALID,217,VALID,1.69881,
2000-01-31, 01:35:00,VALID,0,VALID,93.8431,VALID,-0.0679233,VALID,20.0621,VALID,199,VALID,1.5479,
2000-01-31, 01:36:00,VALID,0,VALID,93.866,VALID,-0.0169808,VALID,20.0817,VALID,188,VALID,1.5026,
2000-01-31, 01:37:00,VALID,0,VALID,94.1928,VALID,-0.0849042,VALID,20.0715,VALID,186,VALID,1.22085,
2000-01-31, 01:38:00,VALID,0,VALID,94.3251,VALID,-0.0169808,VALID,20.0392,VALID,178,VALID,1.70898,
2000-01-31, 01:39:00,VALID,0,VALID,94.6074,VALID,-0.0169808,VALID,19.9967,VALID,182,VALID,1.52097,
2000-01-31, 01:40:00,VALID,0,VALID,94.7752,VALID,-0.0339617,VALID,19.9714,VALID,203,VALID,1.53947,
2000-01-31, 01:41:00,VALID,0,VALID,94.9164,VALID,-0.0509425,VALID,19.9391,VALID,216,VALID,1.6274,
2000-01-31, 01:42:01,VALID,0,VALID,95.0652,VALID,-0.0339617,VALID,19.9423,VALID,216,VALID,1.65584,
2000-01-31, 01:43:00,VALID,0,VALID,95.1224,VALID,-0.0509425,VALID,19.9164,VALID,224,VALID,2.04831,
2000-01-31, 01:44:00,VALID,0,VALID,95.1491,VALID,-0.0849042,VALID,19.9172,VALID,231,VALID,1.8636,
2000-01-31, 01:45:00,VALID,0,VALID,95.1491,VALID,-0.0679233,VALID,19.9137,VALID,226,VALID,2.01462,
2000-01-31, 01:46:00,VALID,0,VALID,95.0601,VALID,-0.0679233,VALID,19.8906,VALID,233,VALID,1.9877,
2000-01-31, 01:47:00,VALID,0,VALID,95.1961,VALID,-0.0679233,VALID,19.8973,VALID,209,VALID,1.08512,
2000-01-31, 01:48:00,VALID,0,VALID,95.4937,VALID,-0.101885,VALID,19.9043,VALID,238,VALID,1.35677,
2000-01-31, 01:49:00,VALID,0,VALID,95.5535,VALID,-0.0339617,VALID,19.8948,VALID,216,VALID,1.52464,
2000-01-31, 01:50:00,VALID,0,VALID,95.659,VALID,-0.101885,VALID,19.8754,VALID,227,VALID,1.40206,
2000-01-31, 01:51:00,VALID,0,VALID,95.6539,VALID,-0.0509425,VALID,19.862,VALID,214,VALID,2.21505,
2000-01-31, 01:52:01,VALID,0,VALID,95.6577,VALID,-0.0679233,VALID,19.8563,VALID,216,VALID,1.82107,
2000-01-31, 01:53:00,VALID,0,VALID,95.7696,VALID,-0.0849042,VALID,19.8396,VALID,204,VALID,1.41707,
2000-01-31, 01:54:00,VALID,0,VALID,95.893,VALID,-0.0679233,VALID,19.8237,VALID,207,VALID,1.14388,
2000-01-31, 01:55:00,VALID,0,VALID,96.0367,VALID,-0.0849042,VALID,19.8108,VALID,220,VALID,0.988582,
2000-01-31, 01:56:00,VALID,0,VALID,96.0138,VALID,-0.0849042,VALID,19.7947,VALID,213,VALID,1.64961,
2000-01-31, 01:57:00,VALID,0,VALID,96.0328,VALID,-0.101885,VALID,19.7681,VALID,195,VALID,1.26983,
2000-01-31, 01:58:00,VALID,0,VALID,95.9349,VALID,0.0339617,VALID,19.7638,VALID,210,VALID,1.40152,
2000-01-31, 01:59:00,VALID,0,VALID,95.8523,VALID,0,VALID,19.774,VALID,214,VALID,1.68812,
2000-01-31, 02:00:00,VALID,0,VALID,95.8447,VALID,-0.0509425,VALID,19.8046,VALID,206,VALID,1.26668,
2000-01-31, 02:01:00,VALID,0,VALID,95.9057,VALID,-0.0849042,VALID,19.7912,VALID,213,VALID,1.28582,
2000-01-31, 02:02:00,VALID,0,VALID,95.6005,VALID,-0.0169808,VALID,19.8011,VALID,190,VALID,1.62171,
2000-01-31, 02:03:01,VALID,0,VALID,95.2953,VALID,-0.0339617,VALID,19.8208,VALID,187,VALID,1.24499,
2000-01-31, 02:04:01,VALID,0,VALID,95.2686,VALID,-0.0679233,VALID,19.8329,VALID,223,VALID,1.2942,
2000-01-31, 02:05:00,VALID,0,VALID,95.219,VALID,-0.0509425,VALID,19.8523,VALID,216,VALID,1.38631,
2000-01-31, 02:06:00,VALID,0,VALID,95.2559,VALID,-0.101885,VALID,19.859,VALID,217,VALID,1.79026,
2000-01-31, 02:07:00,VALID,0,VALID,95.3258,VALID,-0.0679233,VALID,19.8625,VALID,204,VALID,1.31851,
2000-01-31, 02:08:00,VALID,0,VALID,95.3869,VALID,-0.0509425,VALID,19.8563,VALID,201,VALID,0.890008,
2000-01-31, 02:09:00,VALID,0,VALID,95.5802,VALID,-0.0339617,VALID,19.8429,VALID,172,VALID,0.868359,
2000-01-31, 02:10:00,VALID,0,VALID,95.6844,VALID,-0.0509425,VALID,19.8302,VALID,189,VALID,0.911106,
2000-01-31, 02:11:00,VALID,0,VALID,95.7175,VALID,-0.0339617,VALID,19.8173,VALID,201,VALID,0.974159,
2000-01-31, 02:12:00,VALID,0,VALID,95.6679,VALID,-0.0679233,VALID,19.8108,VALID,178,VALID,1.07207,
2000-01-31, 02:13:00,VALID,0,VALID,95.4581,VALID,-0.0169808,VALID,19.7937,VALID,189,VALID,1.13672,
2000-01-31, 02:14:00,VALID,0,VALID,95.5992,VALID,-0.0169808,VALID,19.8205,VALID,163,VALID,1.49609,
2000-01-31, 02:15:01,VALID,0,VALID,94.7371,VALID,-0.0339617,VALID,19.817,VALID,207,VALID,1.87961,
2000-01-31, 02:16:00,VALID,0,VALID,94.5069,VALID,-0.0169808,VALID,19.8625,VALID,201,VALID,1.61106,
2000-01-31, 02:17:00,VALID,0,VALID,94.3149,VALID,-0.0509425,VALID,19.8911,VALID,215,VALID,1.60586,
2000-01-31, 02:18:00,VALID,0,VALID,93.7885,VALID,-0.0339617,VALID,19.9299,VALID,201,VALID,1.14243,
2000-01-31, 02:19:00,VALID,0,VALID,94.025,VALID,-0.0339617,VALID,19.9592,VALID,193,VALID,0.997677,
2000-01-31, 02:20:00,VALID,0,VALID,94.1674,VALID,-0.0679233,VALID,19.9657,VALID,218,VALID,0.651442,
2000-01-31, 02:21:00,VALID,0,VALID,94.0682,VALID,-0.0509425,VALID,19.9657,VALID,232,VALID,1.1838,
2000-01-31, 02:22:00,VALID,0,VALID,94.0924,VALID,-0.0169808,VALID,19.946,VALID,216,VALID,1.36433,
2000-01-31, 02:23:00,VALID,0,VALID,94.0619,VALID,-0.0679233,VALID,19.9525,VALID,206,VALID,1.08714,
2000-01-31, 02:24:00,VALID,0,VALID,94.278,VALID,0,VALID,19.9493,VALID,200,VALID,0.91276,
2000-01-31, 02:25:00,VALID,0,VALID,94.4561,VALID,-0.0339617,VALID,19.9433,VALID,234,VALID,0.632607,
2000-01-31, 02:26:01,VALID,0,VALID,94.601,VALID,-0.0169808,VALID,19.9299,VALID,221,VALID,0.78864,
2000-01-31, 02:27:00,VALID,0,VALID,94.4332,VALID,-0.0169808,VALID,19.9239,VALID,227,VALID,1.24282,
2000-01-31, 02:28:00,VALID,0,VALID,94.554,VALID,0,VALID,19.9309,VALID,207,VALID,0.873828,
2000-01-31, 02:29:00,VALID,0,VALID,94.8185,VALID,-0.0339617,VALID,19.9202,VALID,207,VALID,0.798878,
2000-01-31, 02:30:00,VALID,0,VALID,94.8782,VALID,-0.0509425,VALID,19.901,VALID,239,VALID,0.800987,
2000-01-31, 02:31:00,VALID,0,VALID,95.1097,VALID,-0.0169808,VALID,19.9045,VALID,203,VALID,0.680099,
2000-01-31, 02:32:00,VALID,0,VALID,95.0117,VALID,-0.0339617,VALID,19.8687,VALID,200,VALID,1.80749,
2000-01-31, 02:33:00,VALID,0,VALID,94.8388,VALID,-0.0509425,VALID,19.8523,VALID,187,VALID,1.46995,
2000-01-31, 02:34:00,VALID,0,VALID,94.7689,VALID,-0.0509425,VALID,19.8623,VALID,210,VALID,1.78706,
2000-01-31, 02:35:00,VALID,0,VALID,94.7549,VALID,-0.0339617,VALID,19.8563,VALID,212,VALID,1.33634,
2000-01-31, 02:36:00,VALID,0,VALID,95.0575,VALID,-0.0679233,VALID,19.8662,VALID,220,VALID,0.66509,
2000-01-31, 02:37:01,VALID,0,VALID,94.9723,VALID,-0.0679233,VALID,19.8364,VALID,229,VALID,1.80068,
2000-01-31, 02:38:00,VALID,0,VALID,95.1313,VALID,-0.0509425,VALID,19.8302,VALID,225,VALID,1.7095,
2000-01-31, 02:39:00,VALID,0,VALID,95.2724,VALID,-0.0339617,VALID,19.8138,VALID,235,VALID,1.7905,
2000-01-31, 02:40:00,VALID,0,VALID,95.5344,VALID,-0.0339617,VALID,19.7845,VALID,234,VALID,0.966546,
2000-01-31, 02:41:00,VALID,0,VALID,95.8065,VALID,-0.0509425,VALID,19.7658,VALID,222,VALID,1.11471,
2000-01-31, 02:42:00,VALID,0,VALID,95.9629,VALID,-0.0849042,VALID,19.737,VALID,220,VALID,1.42383,
2000-01-31, 02:43:00,VALID,0,VALID,96.0964,VALID,-0.0509425,VALID,19.7208,VALID,249,VALID,1.14206,
2000-01-31, 02:44:00,VALID,0,VALID,95.9464,VALID,-0.0339617,VALID,19.6945,VALID,232,VALID,0.986842,
2000-01-31, 02:45:00,VALID,0,VALID,95.9464,VALID,0.0169808,VALID,19.6878,VALID,237,VALID,1.10857,
2000-01-31, 02:46:01,VALID,0,VALID,95.912,VALID,-0.0339617,VALID,19.6975,VALID,235,VALID,1.03104,
2000-01-31, 02:47:00,VALID,0,VALID,95.9718,VALID,-0.0679233,VALID,19.7012,VALID,184,VALID,0.939762,
2000-01-31, 02:48:01,VALID,0,VALID,95.8281,VALID,-0.0339617,VALID,19.6848,VALID,192,VALID,0.862331,
2000-01-31, 02:49:00,VALID,0,VALID,95.7226,VALID,-0.0509425,VALID,19.6918,VALID,208,VALID,0.793269,
2000-01-31, 02:50:00,VALID,0,VALID,95.6476,VALID,-0.0849042,VALID,19.6816,VALID,201,VALID,0.75,
2000-01-31, 02:51:00,VALID,0,VALID,95.6501,VALID,-0.0509425,VALID,19.7012,VALID,188,VALID,0.478207,
2000-01-31, 02:52:00,VALID,0,VALID,95.3729,VALID,-0.0679233,VALID,19.7139,VALID,220,VALID,1.35958,
2000-01-31, 02:53:00,VALID,0,VALID,95.336,VALID,-0.0509425,VALID,19.7276,VALID,226,VALID,1.21575,
2000-01-31, 02:54:00,VALID,0,VALID,95.2546,VALID,-0.0509425,VALID,19.7169,VALID,223,VALID,1.5766,
2000-01-31, 02:55:00,VALID,0,VALID,95.2546,VALID,-0.101885,VALID,19.7107,VALID,205,VALID,1.37685,
2000-01-31, 02:56:00,VALID,0,VALID,95.158,VALID,0,VALID,19.701,VALID,215,VALID,1.34756,
2000-01-31, 02:57:00,VALID,0,VALID,95.2635,VALID,-0.0679233,VALID,19.7174,VALID,235,VALID,1.72155,
2000-01-31, 02:58:00,VALID,0,VALID,95.2979,VALID,-0.0339617,VALID,19.698,VALID,195,VALID,1.04883,
2000-01-31, 02:59:00,VALID,0,VALID,95.2381,VALID,-0.0509425,VALID,19.6985,VALID,230,VALID,1.35617,
2000-01-31, 03:00:00,VALID,0,VALID,95.1593,VALID,-0.0339617,VALID,19.7042,VALID,213,VALID,1.3543,
2000-01-31, 03:01:00,VALID,0,VALID,94.8541,VALID,0,VALID,19.7109,VALID,220,VALID,1.39303,
2000-01-31, 03:02:00,VALID,0,VALID,94.7663,VALID,-0.101885,VALID,19.73,VALID,177,VALID,0.830798,
2000-01-31, 03:03:00,VALID,0,VALID,94.704,VALID,-0.0509425,VALID,19.7464,VALID,214,VALID,0.653783,
2000-01-31, 03:04:00,VALID,0,VALID,94.6468,VALID,-0.0509425,VALID,19.7621,VALID,211,VALID,0.751267,
2000-01-31, 03:05:00,VALID,0,VALID,94.3047,VALID,-0.0679233,VALID,19.7723,VALID,176,VALID,1.32832,
2000-01-31, 03:06:00,VALID,0,VALID,93.9233,VALID,-0.0169808,VALID,19.785,VALID,197,VALID,1.54276,
2000-01-31, 03:07:00,VALID,0,VALID,93.3472,VALID,-0.0169808,VALID,19.827,VALID,168,VALID,2.11118,
2000-01-31, 03:08:00,VALID,0,VALID,92.9543,VALID,-0.0849042,VALID,19.8916,VALID,166,VALID,2.22307,
2000-01-31, 03:09:00,VALID,0,VALID,92.8068,VALID,-0.0679233,VALID,19.9269,VALID,179,VALID,2.24034,
2000-01-31, 03:10:00,VALID,0,VALID,92.2651,VALID,-0.0339617,VALID,19.9664,VALID,171,VALID,1.86238,
2000-01-31, 03:11:00,VALID,0,VALID,92.1519,VALID,-0.0169808,VALID,20.0117,VALID,146,VALID,1.36478,
2000-01-31, 03:12:00,VALID,0,VALID,92.0705,VALID,-0.0509425,VALID,20.0276,VALID,176,VALID,1.32031,
2000-01-31, 03:13:00,VALID,0,VALID,91.9268,VALID,-0.0169808,VALID,20.0208,VALID,202,VALID,1.62148,
2000-01-31, 03:14:00,VALID,0,VALID,91.8544,VALID,-0.0679233,VALID,20.031,VALID,202,VALID,1.63176,
2000-01-31, 03:15:00,VALID,0,VALID,91.9014,VALID,-0.0339617,VALID,20.0308,VALID,203,VALID,1.17748,
2000-01-31, 03:16:00,VALID,0,VALID,91.8251,VALID,-0.0509425,VALID,20.031,VALID,205,VALID,1.66465,
2000-01-31, 03:17:00,VALID,0,VALID,91.8747,VALID,-0.0509425,VALID,20.0144,VALID,198,VALID,1.4752,
2000-01-31, 03:18:00,VALID,0,VALID,92.0426,VALID,-0.0509425,VALID,20.0141,VALID,220,VALID,1.36426,
2000-01-31, 03:19:00,VALID,0,VALID,92.1684,VALID,-0.0509425,VALID,19.9947,VALID,213,VALID,1.46534,
2000-01-31, 03:20:00,VALID,0,VALID,92.2028,VALID,-0.0339617,VALID,19.9818,VALID,209,VALID,1.74198,
2000-01-31, 03:21:00,VALID,0,VALID,91.9167,VALID,-0.0509425,VALID,19.9729,VALID,225,VALID,1.51035,
2000-01-31, 03:22:00,VALID,0,VALID,91.6267,VALID,-0.0849042,VALID,19.9885,VALID,223,VALID,1.42608,
2000-01-31, 03:23:00,VALID,0,VALID,91.7183,VALID,-0.0849042,VALID,20.0214,VALID,241,VALID,1.68771,
2000-01-31, 03:24:00,VALID,0,VALID,91.6979,VALID,-0.0849042,VALID,20.0179,VALID,233,VALID,1.34535,
2000-01-31, 03:25:00,VALID,0,VALID,91.5988,VALID,-0.101885,VALID,20.0181,VALID,242,VALID,1.70826,
2000-01-31, 03:26:00,VALID,0,VALID,91.5899,VALID,-0.0679233,VALID,20.0112,VALID,197,VALID,1.37919,
2000-01-31, 03:27:00,VALID,0,VALID,91.3915,VALID,-0.0339617,VALID,20.0176,VALID,211,VALID,1.16907,
2000-01-31, 03:28:00,VALID,0,VALID,91.2758,VALID,-0.0169808,VALID,20.0437,VALID,237,VALID,1.62054,
2000-01-31, 03:29:00,VALID,0,VALID,91.1346,VALID,-0.0679233,VALID,20.0566,VALID,243,VALID,2.8641,
2000-01-31, 03:30:00,VALID,0,VALID,91.0329,VALID,-0.0509425,VALID,20.086,VALID,215,VALID,2.34058,
2000-01-31, 03:31:00,VALID,0,VALID,91.1232,VALID,-0.0339617,VALID,20.089,VALID,232,VALID,2.2878,
2000-01-31, 03:32:00,VALID,0,VALID,90.5446,VALID,-0.0339617,VALID,20.0922,VALID,229,VALID,2.19492,
2000-01-31, 03:33:00,VALID,0,VALID,90.5077,VALID,-0.0509425,VALID,20.131,VALID,234,VALID,1.44832,
2000-01-31, 03:34:00,VALID,0,VALID,90.9108,VALID,-0.0339617,VALID,20.1431,VALID,222,VALID,1.30818,
2000-01-31, 03:35:00,VALID,0,VALID,90.729,VALID,-0.0509425,VALID,20.1173,VALID,198,VALID,2.29914,
2000-01-31, 03:36:00,VALID,0,VALID,90.9998,VALID,-0.0509425,VALID,20.1275,VALID,195,VALID,1.39543,
2000-01-31, 03:37:00,VALID,0,VALID,90.509,VALID,-0.0339617,VALID,20.1051,VALID,210,VALID,1.60697,
2000-01-31, 03:38:00,VALID,0,VALID,90.7048,VALID,-0.0339617,VALID,20.1205,VALID,204,VALID,1.40124,
2000-01-31, 03:39:00,VALID,0,VALID,90.6222,VALID,-0.0339617,VALID,20.1339,VALID,203,VALID,1.71054,
2000-01-31, 03:40:00,VALID,0,VALID,90.6629,VALID,-0.0339617,VALID,20.1175,VALID,208,VALID,1.5662,
2000-01-31, 03:41:00,VALID,0,VALID,90.0919,VALID,-0.0509425,VALID,20.1237,VALID,217,VALID,2.10697,
2000-01-31, 03:42:01,VALID,0,VALID,89.9991,VALID,-0.0169808,VALID,20.1663,VALID,196,VALID,1.48191,
2000-01-31, 03:43:00,VALID,0,VALID,90.2598,VALID,-0.0679233,VALID,20.1857,VALID,204,VALID,1.6949,
2000-01-31, 03:44:00,VALID,0,VALID,90.6133,VALID,0,VALID,20.1658,VALID,226,VALID,2.05929,
2000-01-31, 03:45:00,VALID,0,VALID,90.9795,VALID,-0.0339617,VALID,20.1496,VALID,216,VALID,1.617,
2000-01-31, 03:46:00,VALID,0,VALID,91.1028,VALID,-0.101885,VALID,20.1108,VALID,227,VALID,2.37832,
2000-01-31, 03:47:00,VALID,0,VALID,91.2542,VALID,0,VALID,20.1011,VALID,220,VALID,1.95621,
2000-01-31, 03:48:00,VALID,0,VALID,91.5212,VALID,-0.0339617,VALID,20.0785,VALID,215,VALID,2.26789,
2000-01-31, 03:49:00,VALID,0,VALID,91.8391,VALID,-0.0339617,VALID,20.0462,VALID,169,VALID,1.38902,
2000-01-31, 03:50:00,VALID,0,VALID,91.7564,VALID,-0.0679233,VALID,20.0271,VALID,195,VALID,2.22595,
2000-01-31, 03:51:00,VALID,0,VALID,91.6903,VALID,-0.0509425,VALID,20.0114,VALID,212,VALID,2.51316,
2000-01-31, 03:52:00,VALID,0,VALID,91.5085,VALID,-0.0679233,VALID,20.0017,VALID,199,VALID,1.9734,
2000-01-31, 03:53:00,VALID,0,VALID,91.1753,VALID,-0.0339617,VALID,20.0047,VALID,185,VALID,2.03886,
2000-01-31, 03:54:00,VALID,0,VALID,90.7341,VALID,-0.0509425,VALID,20.044,VALID,183,VALID,1.89688,
2000-01-31, 03:55:00,VALID,0,VALID,91.0037,VALID,-0.0679233,VALID,20.0599,VALID,160,VALID,2.60691,
2000-01-31, 03:56:00,VALID,0,VALID,91.3699,VALID,-0.0339617,VALID,20.0238,VALID,184,VALID,1.85978,
2000-01-31, 03:57:00,VALID,0,VALID,91.7234,VALID,-0.0849042,VALID,19.9853,VALID,185,VALID,1.69712,
2000-01-31, 03:58:00,VALID,0,VALID,91.8938,VALID,-0.0339617,VALID,19.9525,VALID,184,VALID,1.15168,
2000-01-31, 03:59:00,VALID,0,VALID,92.1608,VALID,0,VALID,19.9097,VALID,191,VALID,1.397,
2000-01-31, 04:00:00,VALID,0,VALID,92.1189,VALID,0.0339617,VALID,19.871,VALID,194,VALID,0.608422,
2000-01-31, 04:01:00,VALID,0,VALID,92.2892,VALID,0.0509425,VALID,19.8516,VALID,160,VALID,0.6252,